EW9994 Weather Reports


time (UTC)temp
C
wind
direction
speed
KPH
gust
KPH
rain 1hr
cm
rain 24hr
cm
rain mn
cm
humidity
%
barometer
mb
20260510140406 17 224 1.6 4.8 0.00 0.61 0.61 82 1013.1
20260510134907 17 224 3.2 4.8 0.00 0.61 0.61 82 1013.2
20260510134406 17 222 3.2 8.0 0.00 0.61 0.61 82 1013.2
20260510133406 17 224 3.2 4.8 0.00 0.61 0.61 82 1013.3
20260510131906 17 226 3.2 4.8 0.00 0.61 0.61 76 1013.5
20260510131406 16 226 3.2 4.8 0.00 0.61 0.61 74 1013.6
20260510130906 16 226 3.2 4.8 0.00 0.61 0.61 73 1013.6
20260510130406 16 226 3.2 4.8 0.00 0.61 0.61 72 1013.6
20260510124907 16 226 3.2 4.8 0.00 0.61 0.61 67 1013.7
20260510124406 16 226 3.2 4.8 0.00 0.61 0.61 64 1013.6
20260510123906 15 226 3.2 4.8 0.00 0.61 0.61 63 1013.7
20260510123406 15 226 3.2 4.8 0.00 0.61 0.61 59 1013.8
20260510121406 15 226 3.2 4.8 0.08 0.61 0.61 60 1013.9
20260510120907 15 225 3.2 4.8 0.10 0.61 0.61 63 1014.0
20260510114406 15 219 0.0 3.2 0.23 0.61 0.61 56 1014.3
20260510113406 15 217 0.0 1.6 0.25 0.61 0.61 54 1014.4
20260510111906 15 217 0.0 3.2 0.25 0.58 0.58 54 1014.5
20260510110406 15 233 1.6 3.2 0.20 0.51 0.51 55 1014.5
20260510104906 15 256 1.6 4.8 0.13 0.43 0.43 57 1014.4
20260510103906 15 207 3.2 4.8 0.08 0.38 0.38 58 1014.4
20260510101406 15 205 3.2 4.8 0.05 0.33 0.33 59 1014.3
20260510100406 15 208 1.6 4.8 0.08 0.30 0.30 58 1014.3
20260510094906 15 241 3.2 4.8 0.13 0.30 0.30 61 1014.4
20260510093406 15 226 4.8 4.8 0.18 0.30 0.30 65 1014.5
20260510090406 15 222 0.0 4.8 0.15 0.23 0.23 75 1014.6
20260510084906 15 176 0.0 0.0 0.08 0.18 0.18 82 1014.8
20260510084406 15 176 0.0 0.0 0.05 0.15 0.15 82 1014.8
20260510081406 16 141 0.0 1.6 0.10 0.10 0.10 81 1014.8
20260510080906 16 141 1.6 1.6 0.10 0.10 0.10 81 1014.8
20260510074906 16 243 0.0 1.6 0.10 0.10 0.10 78 1014.8
20260510074406 16 243 0.0 3.2 0.10 0.10 0.10 77 1014.8
20260510073406 16 43 1.6 8.0 0.10 0.10 0.10 78 1014.8
20260510071906 16 45 3.2 4.8 0.05 0.05 0.05 81 1014.7
20260510070406 16 45 0.0 3.2 0.00 0.00 0.00 79 1014.4
20260510064906 16 45 1.6 3.2 0.00 0.00 0.00 73 1014.6
20260510063406 16 45 0.0 0.0 0.00 0.00 0.00 70 1014.5
20260510061406 16 46 0.0 0.0 0.00 0.00 0.00 68 1014.7
20260510060905 16 45 0.0 0.0 0.00 0.00 0.00 68 1014.6
20260510054906 16 45 0.0 1.6 0.00 0.00 0.00 62 1014.3
20260510053906 15 45 0.0 1.6 0.00 0.00 0.00 64 1014.3
20260510050906 15 45 4.8 4.8 0.00 0.00 0.00 68 1014.3
20260510050406 15 46 1.6 8.0 0.00 0.00 0.00 67 1014.3
20260510044906 15 45 4.8 9.7 0.00 0.00 0.00 63 1014.0
20260510043406 15 36 8.0 14.5 0.00 0.00 0.00 60 1014.3
20260510041906 15 37 1.6 3.2 0.00 0.00 0.00 63 1014.6
20260510040406 15 37 0.0 4.8 0.00 0.00 0.00 68 1014.5
20260510033406 15 37 1.6 11.3 0.00 0.00 0.00 76 1014.0
20260510031405 15 37 3.2 4.8 0.00 0.00 0.00 79 1014.0
20260510030906 15 37 0.0 0.0 0.00 0.00 0.00 79 1014.1
20260510030406 15 37 0.0 4.8 0.00 0.00 0.00 80 1014.1
20260510024405 16 37 1.6 4.8 0.00 0.00 0.00 81 1014.3
20260510023906 16 37 3.2 4.8 0.00 0.00 0.00 81 1014.3
20260510021406 16 37 0.0 4.8 0.00 0.00 0.00 82 1014.6
20260510020905 16 37 8.0 9.7 0.00 0.00 0.00 81 1014.7
20260510014406 16 34 4.8 8.0 0.00 0.00 0.00 81 1015.0
20260510013906 16 34 6.4 9.7 0.00 0.00 0.00 81 1015.1
20260510013406 16 34 4.8 4.8 0.00 0.00 0.00 81 1015.1
20260510011905 16 34 1.6 3.2 0.00 0.00 0.00 80 1015.2
20260510011405 16 34 1.6 3.2 0.00 0.00 0.00 80 1015.2
20260510010405 16 34 0.0 1.6 0.00 0.00 0.00 81 1015.2
20260510004405 16 34 0.0 4.8 0.00 0.00 0.00 82 1015.0
20260510000905 16 34 6.4 11.3 0.00 0.00 0.00 82 1015.2
20260509233905 16 34 4.8 8.0 0.00 0.00 0.00 82 1015.6
20260509231906 16 34 8.0 12.9 0.00 0.00 0.00 82 1015.4
20260509230406 16 36 4.8 11.3 0.00 0.00 0.00 82 1015.5
20260509224905 15 36 8.0 9.7 0.00 0.00 0.00 82 1015.4
20260509224405 16 36 4.8 8.0 0.00 0.00 0.00 82 1015.4
20260509223406 16 36 1.6 4.8 0.00 0.00 0.00 82 1015.4
20260509221905 16 36 0.0 1.6 0.00 0.00 0.00 82 1015.3
20260509221405 16 36 1.6 3.2 0.00 0.00 0.00 82 1015.2
20260509220905 16 36 1.6 3.2 0.00 0.00 0.00 81 1015.1
20260509214417 16 36 6.4 14.5 0.00 0.00 0.00 81 1015.0
20260509213406 16 37 9.7 11.3 0.00 0.00 0.00 81 1015.2
20260509211406 16 36 6.4 12.9 0.00 0.00 0.00 81 1015.3
20260509210405 17 36 4.8 9.7 0.00 0.00 0.00 80 1015.4
20260509204905 17 36 8.0 9.7 0.00 0.00 0.00 80 1015.4
20260509201405 17 36 4.8 4.8 0.00 0.00 0.00 77 1015.4
20260509194405 17 36 3.2 8.0 0.00 0.00 0.00 77 1015.1
20260509191907 18 30 4.8 9.7 0.00 0.00 0.00 77 1014.8
20260509191407 18 29 6.4 9.7 0.00 0.00 0.00 77 1014.7
20260509190407 18 28 8.0 11.3 0.00 0.00 0.00 78 1014.5
20260509184406 18 30 6.4 11.3 0.00 0.00 0.00 78 1014.2
20260509181906 19 30 4.8 8.0 0.00 0.00 0.00 76 1014.0
20260509180907 20 29 3.2 8.0 0.00 0.00 0.00 76 1014.0
20260509173906 21 29 6.4 9.7 0.00 0.00 0.00 72 1014.2
20260509171906 22 99 3.2 4.8 0.00 0.00 0.00 69 1014.2
20260509171407 22 102 1.6 3.2 0.00 0.00 0.00 66 1014.2
20260509170907 22 208 1.6 1.6 0.00 0.00 0.00 65 1014.2
20260509170407 22 208 0.0 1.6 0.00 0.00 0.00 63 1014.2
20260509164907 23 210 0.0 0.0 0.00 0.00 0.00 61 1014.1
20260509164407 23 210 0.0 0.0 0.00 0.00 0.00 63 1014.0
20260509161407 23 249 6.4 12.9 0.00 0.00 0.00 57 1014.4
20260509160907 23 217 8.0 12.9 0.00 0.00 0.00 56 1014.4
20260509154906 25 240 3.2 4.8 0.00 0.00 0.00 45 1014.5
20260509151906 25 218 6.4 12.9 0.00 0.00 0.00 43 1014.8
20260509150908 25 204 8.0 12.9 0.00 0.00 0.00 43 1014.9
20260509144407 25 220 8.0 12.9 0.00 0.00 0.00 42 1014.9
20260509143907 25 198 6.4 9.7 0.00 0.00 0.00 43 1014.9
20260509143406 25 207 6.4 19.3 0.00 0.00 0.00 41 1015.0